[[{"header":{"parameterUnit":"m.s-1","parameterCategory":1,"la1":30.2991,"la2":30.254,"lo1":-89.0895,"lo2":-89.0444,"dy":0.0017,"dx":0.0017,"nx":28,"ny":28,"refTime":"2025-08-20T21:00:00:Z","depth":0,"parameterNumber":2,"parameterNumberName":"U-component_of_WINDS"},"data":[0,0,0,0,0,0,0,0,0,0,0,0,0,0,0,0,0,0,0,0,0,0,0,0,0,0,0,0,0,0,0,0,0,0,0,0,0,0,0,0,0,0,0,0,0,0,0,0,0,0,0,0,0,0,0,0,0,0,-0.5226,-0.5225,0,-0.5161,-0.5161,-0.516,-0.5099,-0.5098,-0.5097,-0.5096,-0.5032,-0.5031,-0.503,0,0,0,0,0,0,0,0,0,0,0,0,0,-0.5299,-0.5298,-0.5226,-0.5225,-0.5225,-0.5161,-0.5161,-0.516,-0.5099,-0.5098,-0.5097,-0.5096,-0.5032,-0.5031,-0.503,0,0,0,0,0,0,0,0,0,0,0,0,0,-0.5254,-0.5298,-0.5226,-0.5187,-0.5182,-0.5162,-0.5161,-0.5159,-0.5099,-0.5098,-0.5097,-0.5096,-0.5032,-0.5031,-0.5029,-0.5043,0,0,-0.5025,-0.5024,0,0,0,0,0,0,0,0,-0.5257,-0.5252,-0.5193,-0.5189,-0.5185,-0.5137,-0.5162,-0.5121,-0.5099,-0.5131,-0.5096,-0.5095,-0.5068,-0.5063,-0.5054,-0.504,-0.5037,-0.5025,-0.5024,-0.5023,-0.5023,0,0,0,0,0,0,0,-0.526,-0.5254,-0.5201,-0.5192,-0.5187,-0.5173,-0.5165,-0.5154,-0.5107,-0.5128,-0.5123,-0.5116,-0.5065,-0.5055,-0.5052,-0.5036,-0.5025,-0.5023,-0.5022,-0.5022,-0.5033,-0.5034,0,0,0,0,0,0,-0.5269,-0.5257,-0.5203,-0.5199,-0.5219,-0.5172,-0.5164,-0.5153,-0.5106,-0.5098,-0.5117,-0.5114,-0.5058,-0.5053,-0.5049,-0.5064,-0.5023,-0.5022,-0.5021,-0.5031,-0.5033,-0.5034,0,0,0,0,0,0,-0.5271,-0.5265,-0.5205,-0.5227,-0.5218,-0.5172,-0.5161,-0.5153,-0.5143,-0.5098,-0.509,-0.5116,-0.5057,-0.5051,-0.5045,-0.506,-0.5021,-0.502,-0.503,-0.5032,-0.5034,-0.5092,0,0,0,0,0,0,-0.5273,-0.5266,-0.527,-0.5227,-0.5217,-0.5202,-0.5162,-0.5152,-0.514,-0.5135,-0.5095,-0.5087,-0.5056,-0.5048,-0.5044,-0.5058,-0.5018,-0.5029,-0.5031,-0.5033,-0.5089,-0.5096,-0.5101,0,0,0,0,0,-0.5276,-0.5289,-0.5271,-0.5264,-0.5221,-0.5203,-0.5197,-0.5161,-0.5142,-0.5146,-0.5118,-0.5089,-0.5059,-0.5048,-0.5043,-0.5056,-0.5027,-0.503,-0.5033,-0.5086,-0.5094,-0.5101,0,0,0,0,0,0,-0.5336,-0.5283,-0.5262,-0.5261,-0.5237,-0.5193,-0.5197,-0.5171,-0.5152,-0.5148,-0.5103,-0.5095,-0.5094,-0.5074,-0.5063,-0.5068,-0.5039,-0.5041,-0.5081,-0.5089,-0.5095,-0.5101,-0.5017,0,0,0,0,0,-0.5349,-0.5338,-0.5292,-0.5296,-0.5285,-0.5244,-0.5234,-0.5208,-0.5181,-0.5171,-0.5142,-0.5118,-0.5103,-0.5095,-0.5079,-0.5085,-0.5076,-0.5092,-0.5098,-0.5104,-0.5106,-0.511,-0.5117,-0.5043,-0.5043,-0.5043,0,0,-0.5376,-0.5345,-0.5341,-0.5307,-0.5286,-0.5276,-0.5235,-0.5227,-0.522,-0.517,-0.5163,-0.5141,-0.5111,-0.5112,-0.5111,-0.5095,-0.5125,-0.5107,-0.5112,-0.5111,-0.5113,-0.512,-0.5127,-0.5045,-0.5045,-0.5044,0,0,-0.542,-0.5395,-0.5397,-0.5376,-0.5343,-0.5315,-0.5316,-0.5276,-0.5259,-0.5251,-0.5214,-0.5205,-0.518,-0.5161,-0.5148,-0.5186,-0.5159,-0.5182,-0.5217,-0.5221,-0.5227,-0.5231,-0.5247,-0.5253,-0.5185,-0.5185,-0.5185,0,-0.5458,-0.5441,-0.5401,-0.5395,-0.5382,-0.5335,-0.5337,-0.5319,-0.5283,-0.5276,-0.5258,-0.5228,-0.5204,-0.52,-0.521,-0.52,-0.52,-0.5187,-0.5229,-0.5233,-0.5237,-0.5252,-0.5257,-0.5188,-0.5187,-0.5187,-0.5187,0,-0.549,-0.548,-0.5485,-0.5451,-0.5438,-0.5436,-0.5396,-0.5388,-0.5363,-0.5338,-0.5331,-0.5301,-0.5279,-0.5276,-0.5251,-0.5269,-0.5261,-0.5237,-0.5208,-0.5248,-0.5261,-0.5266,-0.5192,-0.5191,-0.519,-0.5189,0,0,-0.5572,-0.5516,-0.5518,-0.5503,-0.5464,-0.5455,-0.5451,-0.5429,-0.5424,-0.5401,-0.5398,-0.5378,-0.5356,-0.5342,-0.5314,-0.5317,-0.5352,-0.5293,-0.5292,-0.5307,-0.5372,-0.5392,-0.5398,-0.5333,-0.5334,-0.5334,-0.5375,0,-0.5611,-0.5601,-0.5564,-0.5566,-0.5556,-0.5512,-0.5509,-0.5486,-0.5462,-0.5451,-0.5424,-0.5412,-0.5382,-0.5374,-0.5375,-0.5347,-0.5364,-0.5344,-0.5331,-0.5331,-0.5342,-0.5404,-0.5425,-0.5465,-0.5379,-0.538,-0.5381,0,-0.5655,-0.5635,-0.5636,-0.5598,-0.5593,-0.559,-0.5568,-0.5557,-0.553,-0.5512,-0.5496,-0.5466,-0.5461,-0.5432,-0.5425,-0.5412,-0.5405,-0.5391,-0.5391,-0.539,-0.536,-0.5407,-0.5476,-0.5483,-0.5388,-0.5387,-0.5387,0,-0.5717,-0.569,-0.5687,-0.5675,-0.563,-0.563,-0.5611,-0.5582,-0.5572,-0.5552,-0.5545,-0.5526,-0.5515,-0.5501,-0.5467,-0.5449,-0.5465,-0.5433,-0.5451,-0.5452,-0.5458,-0.5458,-0.5529,-0.545,-0.545,-0.545,-0.545,0,-0.5766,-0.5768,-0.5714,-0.5712,-0.5714,-0.5672,-0.5676,-0.5653,-0.5628,-0.5622,-0.5582,-0.5578,-0.5532,-0.5522,-0.5495,-0.5495,-0.549,-0.5477,-0.547,-0.5481,-0.5483,-0.5477,-0.5474,-0.5451,-0.5451,-0.5451,-0.5451,0,-0.5835,-0.5799,-0.5793,-0.5751,-0.574,-0.5744,-0.5708,-0.5706,-0.5679,-0.5673,-0.5669,-0.5627,-0.5614,-0.5578,-0.5556,-0.5538,-0.5546,-0.5531,-0.5555,-0.5551,-0.5572,-0.5572,-0.5643,-0.5651,-0.5566,-0.5567,-0.5567,0,-0.587,-0.5871,-0.5829,-0.5822,-0.5805,-0.5794,-0.5783,-0.5742,-0.5732,-0.5702,-0.5703,-0.5687,-0.5672,-0.5653,-0.5622,-0.5605,-0.5591,-0.5617,-0.5589,-0.5601,-0.5594,-0.5596,-0.5596,-0.5625,-0.5626,-0.5627,-0.5627,0,-0.5936,-0.5917,-0.5903,-0.5882,-0.587,-0.5852,-0.5832,-0.5829,-0.5783,-0.5774,-0.576,-0.5749,-0.5726,-0.5711,-0.5689,-0.5671,-0.5643,-0.5636,-0.564,-0.5653,-0.5668,-0.5662,-0.5574,-0.5635,-0.5635,-0.5634,-0.5634,-0.5633,-0.599,-0.5989,-0.596,-0.5945,-0.5926,-0.5908,-0.5904,-0.5877,-0.5864,-0.5842,-0.5819,-0.5808,-0.5781,-0.5749,-0.5733,-0.5725,-0.5709,-0.5714,-0.5716,-0.5718,-0.5725,-0.5667,-0.572,-0.572,-0.572,-0.572,-0.5719,0,-0.6055,-0.6034,-0.6021,-0.5994,-0.5983,-0.5956,-0.5932,-0.5925,-0.5916,-0.5893,-0.5879,-0.5864,-0.5849,-0.5817,-0.58,-0.5799,-0.5786,-0.5797,-0.5797,-0.5794,-0.5738,-0.5738,-0.5808,-0.5808,-0.5808,-0.5808,-0.5808,-0.5808,-0.6088,-0.6086,-0.6065,-0.6053,-0.6032,-0.6021,-0.601,-0.5994,-0.5976,-0.596,-0.5948,-0.5926,-0.59,-0.5881,-0.5867,-0.5858,-0.5854,-0.587,-0.5857,-0.5806,-0.5798,-0.579,-0.5789,-0.5869,-0.5869,-0.5913,-0.5914,-0.5914]},{"header":{"parameterUnit":"m.s-1","parameterCategory":1,"la1":30.2991,"la2":30.254,"lo1":-89.0895,"lo2":-89.0444,"dy":0.0017,"dx":0.0017,"nx":28,"ny":28,"refTime":"2025-08-20T21:00:00:Z","depth":0,"parameterNumber":3,"parameterNumberName":"V-component_of_WINDS"},"data":[0,0,0,0,0,0,0,0,0,0,0,0,0,0,0,0,0,0,0,0,0,0,0,0,0,0,0,0,0,0,0,0,0,0,0,0,0,0,0,0,0,0,0,0,0,0,0,0,0,0,0,0,0,0,0,0,0,0,-0.6021,-0.6021,0,-0.603,-0.603,-0.603,-0.6037,-0.6037,-0.6037,-0.6037,-0.6045,-0.6045,-0.6045,0,0,0,0,0,0,0,0,0,0,0,0,0,-0.6012,-0.6012,-0.6021,-0.6022,-0.6022,-0.603,-0.603,-0.603,-0.6037,-0.6037,-0.6037,-0.6037,-0.6045,-0.6045,-0.6045,0,0,0,0,0,0,0,0,0,0,0,0,0,-0.6018,-0.6012,-0.6021,-0.6026,-0.6027,-0.603,-0.603,-0.603,-0.6037,-0.6037,-0.6037,-0.6037,-0.6045,-0.6045,-0.6045,-0.6044,0,0,-0.6046,-0.6046,0,0,0,0,0,0,0,0,-0.6017,-0.6018,-0.6025,-0.6026,-0.6026,-0.6033,-0.6029,-0.6034,-0.6037,-0.6033,-0.6037,-0.6038,-0.6041,-0.6041,-0.6042,-0.6044,-0.6044,-0.6046,-0.6046,-0.6046,-0.6046,0,0,0,0,0,0,0,-0.6017,-0.6018,-0.6025,-0.6026,-0.6026,-0.6028,-0.6029,-0.603,-0.6036,-0.6033,-0.6034,-0.6035,-0.6041,-0.6042,-0.6043,-0.6044,-0.6046,-0.6046,-0.6046,-0.6046,-0.6046,-0.6046,0,0,0,0,0,0,-0.6016,-0.6017,-0.6024,-0.6025,-0.6022,-0.6028,-0.6029,-0.603,-0.6036,-0.6037,-0.6035,-0.6035,-0.6042,-0.6042,-0.6043,-0.6042,-0.6046,-0.6046,-0.6046,-0.6046,-0.6046,-0.6046,0,0,0,0,0,0,-0.6016,-0.6016,-0.6024,-0.6021,-0.6022,-0.6028,-0.6029,-0.6031,-0.6032,-0.6037,-0.6038,-0.6035,-0.6042,-0.6043,-0.6044,-0.6042,-0.6046,-0.6046,-0.6046,-0.6046,-0.6046,-0.604,0,0,0,0,0,0,-0.6015,-0.6016,-0.6016,-0.6021,-0.6022,-0.6025,-0.6029,-0.6031,-0.6032,-0.6033,-0.6038,-0.6038,-0.6042,-0.6043,-0.6044,-0.6043,-0.6046,-0.6046,-0.6046,-0.6046,-0.604,-0.604,-0.6039,0,0,0,0,0,-0.6015,-0.6013,-0.6016,-0.6016,-0.6022,-0.6025,-0.6025,-0.603,-0.6032,-0.6032,-0.6035,-0.6038,-0.6042,-0.6043,-0.6044,-0.6043,-0.6046,-0.6046,-0.6046,-0.6041,-0.604,-0.6039,0,0,0,0,0,0,-0.6007,-0.6014,-0.6017,-0.6017,-0.602,-0.6026,-0.6025,-0.6029,-0.6031,-0.6032,-0.6037,-0.6038,-0.6038,-0.6041,-0.6042,-0.6042,-0.6045,-0.6045,-0.6041,-0.604,-0.6039,-0.6039,-0.6047,0,0,0,0,0,-0.6005,-0.6007,-0.6013,-0.6013,-0.6014,-0.602,-0.6021,-0.6024,-0.6028,-0.6029,-0.6032,-0.6035,-0.6038,-0.6039,-0.6041,-0.6041,-0.6042,-0.604,-0.604,-0.6039,-0.6039,-0.604,-0.6039,-0.6045,-0.6045,-0.6045,0,0,-0.6002,-0.6006,-0.6007,-0.6011,-0.6014,-0.6016,-0.6021,-0.6022,-0.6023,-0.6029,-0.603,-0.6033,-0.6037,-0.6038,-0.6038,-0.6039,-0.6038,-0.6039,-0.6038,-0.6038,-0.6039,-0.6039,-0.6038,-0.6045,-0.6045,-0.6045,0,0,-0.5997,-0.6,-0.6,-0.6003,-0.6008,-0.6011,-0.6011,-0.6017,-0.6019,-0.6021,-0.6025,-0.6027,-0.603,-0.6033,-0.6034,-0.6031,-0.6034,-0.6032,-0.6028,-0.6029,-0.6028,-0.6028,-0.6027,-0.6027,-0.6031,-0.6031,-0.6031,0,-0.5992,-0.5995,-0.6,-0.6001,-0.6003,-0.6009,-0.601,-0.6012,-0.6017,-0.6018,-0.602,-0.6025,-0.6028,-0.6029,-0.6029,-0.603,-0.603,-0.6031,-0.6028,-0.6028,-0.6028,-0.6027,-0.6027,-0.6031,-0.6031,-0.6031,-0.6031,0,-0.5989,-0.599,-0.599,-0.5995,-0.5997,-0.5998,-0.6004,-0.6005,-0.6009,-0.6012,-0.6014,-0.6018,-0.6021,-0.6022,-0.6024,-0.6024,-0.6025,-0.6027,-0.603,-0.6027,-0.6026,-0.6026,-0.6031,-0.6031,-0.6031,-0.6031,0,0,-0.5978,-0.5987,-0.5987,-0.5989,-0.5995,-0.5997,-0.5998,-0.6002,-0.6003,-0.6007,-0.6008,-0.6011,-0.6014,-0.6016,-0.6019,-0.602,-0.6017,-0.6022,-0.6022,-0.6022,-0.6018,-0.6016,-0.6016,-0.602,-0.602,-0.6019,-0.6017,0,-0.5974,-0.5977,-0.5982,-0.5984,-0.5986,-0.5992,-0.5993,-0.5997,-0.6,-0.6002,-0.6006,-0.6009,-0.6011,-0.6013,-0.6014,-0.6018,-0.6017,-0.6018,-0.6021,-0.6021,-0.602,-0.6015,-0.6013,-0.6011,-0.6017,-0.6017,-0.6017,0,-0.597,-0.5974,-0.5975,-0.5982,-0.5983,-0.5984,-0.5988,-0.599,-0.5995,-0.5997,-0.6,-0.6004,-0.6006,-0.6008,-0.6011,-0.6012,-0.6013,-0.6016,-0.6016,-0.6016,-0.6019,-0.6016,-0.601,-0.601,-0.6017,-0.6017,-0.6017,0,-0.5963,-0.5968,-0.597,-0.5972,-0.5979,-0.598,-0.5983,-0.5988,-0.599,-0.5993,-0.5995,-0.5999,-0.6001,-0.6003,-0.6008,-0.601,-0.6011,-0.6014,-0.6013,-0.6013,-0.6013,-0.6013,-0.6008,-0.6014,-0.6014,-0.6014,-0.6014,0,-0.5958,-0.5959,-0.5967,-0.5968,-0.597,-0.5976,-0.5977,-0.598,-0.5985,-0.5987,-0.5992,-0.5993,-0.6,-0.6002,-0.6006,-0.6008,-0.6009,-0.6011,-0.6012,-0.6011,-0.601,-0.6012,-0.6012,-0.6014,-0.6014,-0.6014,-0.6014,0,-0.5951,-0.5956,-0.5959,-0.5966,-0.5967,-0.5968,-0.5974,-0.5975,-0.5979,-0.5982,-0.5983,-0.5989,-0.5992,-0.5997,-0.6002,-0.6005,-0.6006,-0.6008,-0.6005,-0.6006,-0.6005,-0.6005,-0.6001,-0.6001,-0.6006,-0.6006,-0.6006,0,-0.5948,-0.5949,-0.5956,-0.5958,-0.5961,-0.5963,-0.5966,-0.5972,-0.5974,-0.598,-0.598,-0.5984,-0.5988,-0.5993,-0.5998,-0.6001,-0.6003,-0.6002,-0.6004,-0.6003,-0.6004,-0.6004,-0.6004,-0.6001,-0.6001,-0.6001,-0.6001,0,-0.5941,-0.5944,-0.5948,-0.5952,-0.5955,-0.5959,-0.5963,-0.5964,-0.597,-0.5973,-0.5977,-0.5979,-0.5985,-0.5988,-0.5993,-0.5996,-0.6,-0.6,-0.6,-0.5999,-0.5998,-0.5999,-0.6004,-0.6,-0.6,-0.6,-0.6,-0.6,-0.5936,-0.5938,-0.5943,-0.5947,-0.5951,-0.5954,-0.5956,-0.5961,-0.5964,-0.5969,-0.5972,-0.5976,-0.5981,-0.5987,-0.599,-0.5993,-0.5995,-0.5995,-0.5995,-0.5995,-0.5995,-0.5997,-0.5994,-0.5994,-0.5994,-0.5994,-0.5994,0,-0.5931,-0.5935,-0.5938,-0.5944,-0.5947,-0.595,-0.5955,-0.5957,-0.5961,-0.5965,-0.5969,-0.5973,-0.5977,-0.5982,-0.5987,-0.5988,-0.599,-0.5989,-0.5989,-0.599,-0.5993,-0.5992,-0.5987,-0.5987,-0.5987,-0.5987,-0.5987,-0.5987,-0.5929,-0.5931,-0.5935,-0.594,-0.5943,-0.5947,-0.595,-0.5953,-0.5957,-0.5962,-0.5965,-0.5969,-0.5974,-0.5979,-0.5982,-0.5984,-0.5985,-0.5984,-0.5986,-0.5989,-0.5989,-0.599,-0.599,-0.5984,-0.5984,-0.5983,-0.5983,-0.5983]}]]